TimeCST,TemperatureF,Dew PointF,Humidity,Sea Level PressureIn,VisibilityMPH,Wind Direction,Wind SpeedMPH,Gust SpeedMPH,PrecipitationIn,Events,Conditions,WindDirDegrees,DateUTC
12:15 AM,26.6,17.6,69,30.19,10.0,West,4.6,-,N/A,,Clear,270,2013-11-19 06:15:00
12:35 AM,26.6,17.6,69,30.20,10.0,WNW,3.5,-,N/A,,Clear,290,2013-11-19 06:35:00
12:55 AM,26.6,17.6,69,30.20,10.0,Calm,Calm,-,N/A,,Clear,0,2013-11-19 06:55:00
1:15 AM,24.8,15.8,69,30.22,10.0,Calm,Calm,-,N/A,,Clear,0,2013-11-19 07:15:00
1:35 AM,24.8,17.6,74,30.22,10.0,Calm,Calm,-,N/A,,Clear,0,2013-11-19 07:35:00
1:55 AM,24.8,19.4,80,30.23,10.0,Calm,Calm,-,N/A,,Clear,0,2013-11-19 07:55:00
2:15 AM,23.0,19.4,86,30.24,10.0,Calm,Calm,-,N/A,,Clear,0,2013-11-19 08:15:00
2:35 AM,23.0,19.4,86,30.25,10.0,Calm,Calm,-,N/A,,Clear,0,2013-11-19 08:35:00
2:55 AM,23.0,19.4,86,30.25,10.0,West,3.5,-,N/A,,Clear,280,2013-11-19 08:55:00
3:15 AM,24.8,19.4,80,30.25,10.0,Calm,Calm,-,N/A,,Clear,0,2013-11-19 09:15:00
3:35 AM,21.2,17.6,86,30.26,10.0,Calm,Calm,-,N/A,,Clear,0,2013-11-19 09:35:00
3:55 AM,21.2,17.6,86,30.27,10.0,Calm,Calm,-,N/A,,Clear,0,2013-11-19 09:55:00
4:15 AM,21.2,17.6,86,30.27,10.0,Calm,Calm,-,N/A,,Clear,0,2013-11-19 10:15:00
4:35 AM,21.2,17.6,86,30.28,10.0,Calm,Calm,-,N/A,,Clear,0,2013-11-19 10:35:00
4:55 AM,21.2,17.6,86,30.28,10.0,Calm,Calm,-,N/A,,Clear,0,2013-11-19 10:55:00
5:15 AM,21.2,19.4,93,30.29,10.0,Calm,Calm,-,N/A,,Clear,0,2013-11-19 11:15:00
5:35 AM,19.4,17.6,93,30.30,10.0,Calm,Calm,-,N/A,,Clear,0,2013-11-19 11:35:00
5:55 AM,21.2,17.6,86,30.31,10.0,Calm,Calm,-,N/A,,Clear,0,2013-11-19 11:55:00
6:15 AM,19.4,19.4,100,30.31,10.0,Calm,Calm,-,N/A,,Clear,0,2013-11-19 12:15:00
6:35 AM,19.4,17.6,93,30.32,10.0,Calm,Calm,-,N/A,,Clear,0,2013-11-19 12:35:00
6:55 AM,19.4,19.4,100,30.32,10.0,WNW,3.5,-,N/A,,Clear,300,2013-11-19 12:55:00
7:15 AM,19.4,19.4,100,30.33,10.0,Calm,Calm,-,N/A,,Clear,0,2013-11-19 13:15:00
7:35 AM,19.4,19.4,100,30.33,10.0,Calm,Calm,-,N/A,,Clear,0,2013-11-19 13:35:00
7:55 AM,23.0,21.2,93,30.33,10.0,North,4.6,-,N/A,,Clear,350,2013-11-19 13:55:00
8:15 AM,24.8,21.2,86,30.33,10.0,North,3.5,-,N/A,,Clear,350,2013-11-19 14:15:00
8:35 AM,26.6,21.2,80,30.34,10.0,Calm,Calm,-,N/A,,Clear,0,2013-11-19 14:35:00
8:55 AM,28.4,21.2,74,30.34,10.0,NNE,4.6,-,N/A,,Clear,20,2013-11-19 14:55:00
9:15 AM,28.4,17.6,64,30.35,10.0,NE,4.6,-,N/A,,Clear,40,2013-11-19 15:15:00
9:35 AM,30.2,19.4,64,30.35,10.0,East,3.5,-,N/A,,Clear,100,2013-11-19 15:35:00
9:55 AM,28.4,15.8,59,30.36,10.0,Calm,Calm,-,N/A,,Clear,0,2013-11-19 15:55:00
10:15 AM,32.0,17.6,55,30.36,10.0,NNE,3.5,-,N/A,,Clear,20,2013-11-19 16:15:00
10:35 AM,32.0,17.6,55,30.35,10.0,Calm,Calm,-,N/A,,Clear,0,2013-11-19 16:35:00
10:55 AM,32.0,19.4,60,30.35,10.0,East,5.8,-,N/A,,Clear,100,2013-11-19 16:55:00
11:15 AM,32.0,19.4,60,30.34,10.0,Calm,Calm,-,N/A,,Clear,0,2013-11-19 17:15:00
11:35 AM,33.8,19.4,56,30.33,10.0,SE,5.8,-,N/A,,Clear,140,2013-11-19 17:35:00
11:55 AM,32.0,19.4,60,30.32,10.0,ESE,6.9,-,N/A,,Clear,120,2013-11-19 17:55:00
12:15 PM,33.8,19.4,56,30.32,10.0,ESE,3.5,-,N/A,,Clear,120,2013-11-19 18:15:00
12:35 PM,33.8,21.2,60,30.32,10.0,East,6.9,-,N/A,,Clear,90,2013-11-19 18:35:00
12:55 PM,33.8,21.2,60,30.31,10.0,ESE,5.8,-,N/A,,Clear,110,2013-11-19 18:55:00
1:15 PM,33.8,19.4,56,30.30,10.0,SE,8.1,-,N/A,,Clear,130,2013-11-19 19:15:00
1:35 PM,35.6,19.4,52,30.30,10.0,SSE,8.1,-,N/A,,Clear,160,2013-11-19 19:35:00
1:55 PM,33.8,21.2,60,30.30,10.0,SSE,9.2,-,N/A,,Clear,160,2013-11-19 19:55:00
2:15 PM,35.6,19.4,52,30.30,10.0,SSE,6.9,-,N/A,,Clear,160,2013-11-19 20:15:00
2:35 PM,35.6,19.4,52,30.30,10.0,SE,8.1,-,N/A,,Clear,130,2013-11-19 20:35:00
2:55 PM,33.8,19.4,56,30.29,10.0,SSE,8.1,-,N/A,,Clear,160,2013-11-19 20:55:00
3:15 PM,33.8,21.2,60,30.29,10.0,SSE,5.8,-,N/A,,Clear,160,2013-11-19 21:15:00
3:35 PM,33.8,21.2,60,30.28,10.0,SE,4.6,-,N/A,,Clear,130,2013-11-19 21:35:00
3:55 PM,32.0,21.2,64,30.28,10.0,Calm,Calm,-,N/A,,Clear,0,2013-11-19 21:55:00
4:15 PM,30.2,23.0,75,30.28,10.0,Calm,Calm,-,N/A,,Clear,0,2013-11-19 22:15:00
4:35 PM,30.2,21.2,69,30.27,10.0,SE,3.5,-,N/A,,Clear,130,2013-11-19 22:35:00
4:55 PM,30.2,23.0,75,30.27,10.0,South,4.6,-,N/A,,Clear,170,2013-11-19 22:55:00
5:15 PM,32.0,24.8,75,30.28,10.0,SSE,9.2,-,N/A,,Clear,160,2013-11-19 23:15:00
5:35 PM,33.8,24.8,70,30.28,10.0,South,10.4,-,N/A,,Clear,170,2013-11-19 23:35:00
5:55 PM,33.8,24.8,70,30.28,10.0,South,8.1,-,N/A,,Clear,170,2013-11-19 23:55:00
6:15 PM,33.8,24.8,70,30.27,10.0,South,11.5,-,N/A,,Clear,180,2013-11-20 00:15:00
6:35 PM,33.8,24.8,70,30.27,10.0,South,9.2,-,N/A,,Clear,180,2013-11-20 00:35:00
6:55 PM,33.8,26.6,75,30.27,10.0,South,8.1,-,N/A,,Clear,190,2013-11-20 00:55:00
7:15 PM,33.8,24.8,70,30.27,10.0,South,9.2,-,N/A,,Clear,190,2013-11-20 01:15:00
7:35 PM,33.8,26.6,75,30.26,10.0,South,10.4,-,N/A,,Clear,180,2013-11-20 01:35:00
7:55 PM,33.8,28.4,81,30.26,10.0,South,9.2,-,N/A,,Partly Cloudy,190,2013-11-20 01:55:00
8:15 PM,33.8,26.6,75,30.26,10.0,South,6.9,-,N/A,,Mostly Cloudy,190,2013-11-20 02:15:00
8:35 PM,33.8,28.4,81,30.25,10.0,South,8.1,-,N/A,,Overcast,190,2013-11-20 02:35:00
8:55 PM,33.8,28.4,81,30.24,10.0,South,9.2,-,N/A,,Overcast,180,2013-11-20 02:55:00
9:15 PM,35.6,28.4,75,30.24,10.0,South,9.2,-,N/A,,Overcast,190,2013-11-20 03:15:00
9:35 PM,35.6,28.4,75,30.23,10.0,SSW,9.2,-,N/A,,Overcast,200,2013-11-20 03:35:00
9:55 PM,35.6,30.2,81,30.23,10.0,South,10.4,-,N/A,,Overcast,190,2013-11-20 03:55:00
10:15 PM,35.6,28.4,75,30.23,10.0,SSW,6.9,-,N/A,,Overcast,200,2013-11-20 04:15:00
10:35 PM,35.6,30.2,81,30.23,10.0,SSW,10.4,-,N/A,,Overcast,200,2013-11-20 04:35:00
10:55 PM,35.6,30.2,81,30.22,10.0,SSW,8.1,-,N/A,,Scattered Clouds,200,2013-11-20 04:55:00
11:15 PM,33.8,30.2,87,30.23,10.0,South,9.2,-,N/A,,Clear,190,2013-11-20 05:15:00
11:35 PM,35.6,30.2,81,30.22,10.0,South,10.4,-,N/A,,Mostly Cloudy,190,2013-11-20 05:35:00
11:55 PM,35.6,32.0,87,30.22,10.0,South,10.4,-,N/A,,Mostly Cloudy,190,2013-11-20 05:55:00